Location: Korczew
(51.3586°N, 19.4491°E)
Time: 23:05:10
(UTC+00:00)

Cosmos 1802 Rocket - Pass Details

Date: 19 May 2025
Orbit: 954 x 1010 km, 82.9° (Epoch: 16 June)

Event Time Altitude Azimuth Distance (km) Brightness Sun altitude
Rises 22:50:56 0° 351° (N) 3,704 8.6 -18.6°
Reaches altitude 10° 22:53:29 10° 355° (N) 2,760 7.6 -18.6°
Maximum altitude 22:59:47 64° 76° (ENE) 1,102 4.3 -18.5°
Enters shadow 23:03:51 23° 152° (SSE) 1,979 5.1 -18.4°
